Simultaneous Nadir Overpasses (SNOs) Predictions

Prediction of SNOs between LANDSAT-8 and METOP-B Satellite Orbit:

Table of predicted SNOs for the next 14.0 days since TLE Epoch: 4/20/2017
Index Date (LANDSAT-8) Time (LANDSAT-8) Lat,Lon (LANDSAT-8) SZA (LANDSAT-8 ) Date (METOP-B) Time (METOP-B) Lat,Lon (METOP-B) SZA (METOP-B ) Distance(km) Time Diff (sec)
1 04/21/2017 01:50:56 -81.09, 11.02 108.77 04/21/2017 01:50:10 -81.09, 11.03 108.78 0.33 46
2 04/21/2017 02:40:21 81.12, 179.12 71.29 04/21/2017 02:40:48 81.12, 179.25 71.32 2.39 27
3 04/23/2017 21:25:09 -81.10, 77.58 109.67 04/23/2017 21:24:31 -81.10, 77.71 109.67 2.22 38
4 04/23/2017 22:14:34 81.12,-114.35 70.38 04/23/2017 22:15:10 81.12,-114.48 70.38 2.33 36
5 04/26/2017 16:59:22 -81.10, 144.11 110.56 04/26/2017 16:58:53 -81.10, 144.00 110.59 1.98 29
6 04/26/2017 17:48:47 81.13, -47.85 69.50 04/26/2017 17:49:31 81.13, -47.84 69.51 0.21 44
7 04/29/2017 12:33:34 -81.10,-149.40 111.42 04/29/2017 12:33:13 -81.10,-149.35 111.42 0.83 21
8 04/29/2017 13:22:59 81.13, 18.61 68.63 04/29/2017 13:23:51 81.13, 18.77 68.67 2.77 52
9 05/02/2017 08:07:47 -81.11, -82.95 112.26 05/02/2017 08:07:35 -81.10, -83.10 112.28 2.62 12




NCC Satellite Simultaneous Nadir Overpasses (SNOs) Prediction Service
